Voltar ao catálogo

CZ-6A DEB

AtivoSSO
NORAD 55524·DEBRIS·🇨🇳 China

Lançado Nov 11, 2022 de Taiyuan Satellite Launch Center

Loading…

Próximas Passagens (próximas 24 horas)

TLE

AtualizadoSource: Space-Track

Época: Sep 14, 2026, 11:20 UTC

1 55524U 22151XW  26257.47273877  .00001734  00000-0  87467-3 0  9999
2 55524  98.8521 262.3022 0055022  76.3903 284.3391 14.16810839192491

Acompanhe CZ-6A DEB em tempo real com AllMySat

Download on the App Store